sat.trackr.live / text

‹ back to catalog

CMS-02 (GSAT-24)

NORAD 52903 · 2022-067A

PAYLOAD ACTIVE UNKNOWN

§ Identity

Operator
Country
IND
Launch date
2022-06-22
Launch site
FRGUI
Launch vehicle
Mass (kg)
RCS (m²)

Purposes: comms

External: N2YO · Heavens-Above · Gunter

§ Orbital elements

Epoch: 2026-09-20T03:37:48.337824Z

Period
1,436.09 min
Inclination
0.0133°
Eccentricity
0.0002081
Mean motion
1.00271925 rev/d
Perigee alt
35,777.8 km
Apogee alt
35,795.3 km
Semi-major
42,164.7 km
B*
0.0000e+0
RAAN
182.7209°
Arg perigee
80.1139°
Mean anomaly
233.6807°
Rev number
1,556

§ Raw data

CMS-02 (GSAT-24)1 52903U 22067A   26263.15125391 -.00000169  00000+0  00000+0 0  99972 52903   0.0133 182.7209 0002081  80.1139 233.6807  1.00271925 15563

JSON: /api/v1/satellites/52903 · /tle

For live sub-satellite position, see the globe view (requires WebGL).

§ Visibility from observer

Set your observer location to see the next 7 days of passes ≥ 10°. The values pass through the URL so the page stays shareable.

No JS? Fill the form by hand. The geolocation button needs JavaScript.